This is the latest recevied weather packets stored in our database for station/object KR4KUV. If no packets are shown the sender has not sent any weather packets the latest 10 day(s).
| Time | Temp. | Humidity | Pressure | Rain* | Wind** | Luminosity | Snow |
|---|---|---|---|---|---|---|---|
| 1787840030 | 25.56° C | 87% | 1018 hPa | 0 mm | - | 85 W/m² | - |
| 1787839724 | 26.11° C | 85% | 1018 hPa | 0 mm | - | 79 W/m² | - |
| 1787839419 | 26.11° C | 85% | 1018 hPa | 0 mm | - | 81 W/m² | - |
| 1787839119 | 26.11° C | 85% | 1018 hPa | 0 mm | - | 103 W/m² | - |
| 1787838818 | 26.11° C | 85% | 1018.3 hPa | 0 mm | - | 146 W/m² | - |
| 1787838513 | 26.11° C | 88% | 1018.2 hPa | 0 mm | - | 175 W/m² | - |
| 1787838212 | 25° C | 90% | 1017.9 hPa | 0 mm | - | 143 W/m² | - |
| 1787837911 | 25° C | 90% | 1017.9 hPa | 0 mm | - | 113 W/m² | - |
| 1787837610 | 24.44° C | 91% | 1017.9 hPa | 0 mm | - | 93 W/m² | - |
| 1787837305 | 24.44° C | 93% | 1018.1 hPa | 0 mm | - | 103 W/m² | - |
| 1787837000 | 23.89° C | 94% | 1018.1 hPa | 0 mm | - | 97 W/m² | - |
| 1787836695 | 23.89° C | 96% | 1018 hPa | 0 mm | - | 81 W/m² | - |
| 1787836389 | 23.33° C | 96% | 1018.2 hPa | 0 mm | - | 75 W/m² | - |
| 1787836084 | 23.33° C | 97% | 1018.2 hPa | 0 mm | - | 92 W/m² | - |
| 1787835781 | 23.33° C | 97% | 1018.2 hPa | 0 mm | - | 103 W/m² | - |
| 1787835480 | 22.78° C | 97% | 1018.1 hPa | 0 mm | - | 72 W/m² | - |
| 1787835175 | 22.78° C | 97% | 1018.2 hPa | 0 mm | - | 99 W/m² | - |
| 1787834874 | 22.78° C | 97% | 1018.1 hPa | 0 mm | - | 109 W/m² | - |
| 1787834569 | 22.78° C | 97% | 1018.1 hPa | 0 mm | - | 98 W/m² | - |
| 1787834263 | 22.78° C | 97% | 1018.2 hPa | 0 mm | - | 85 W/m² | - |
| 1787833960 | 22.78° C | 97% | 1018.1 hPa | 0 mm | - | 80 W/m² | - |
| 1787833655 | 22.22° C | 97% | 1018.1 hPa | 0 mm | - | 60 W/m² | - |
| 1787833350 | 22.22° C | 98% | 1018.1 hPa | 0 mm | - | 61 W/m² | - |
| 1787833045 | 22.22° C | 98% | 1018.1 hPa | 0 mm | - | 52 W/m² | - |
| 1787832741 | 22.22° C | 98% | 1018.2 hPa | 0 mm | - | 51 W/m² | - |
* Rain latest hour (hover to see other rain measurements)
** Current wind speed in m/s (hover to see current wind gust speed)